Location: *
(35.2348°S, 91.3916°E)
Time: 05:08:08
(UTC+00:00)

Cosmos 2082 Rocket - Pass Details

Date: 23 October 2019
Orbit: 832 x 854 km, 71.0° (Epoch: 18 November)

Event Time Altitude Azimuth Distance (km) Brightness Sun altitude
Exits shadow 12:53:25 10° 74° (ENE) 2,478 3.9 -8.2°
Reaches altitude 10° 12:53:55 10° 79° (E) 2,457 4.0 -8.3°
Maximum altitude 12:54:20 10° 84° (E) 2,452 4.0 -8.3°
Drops below altitude 10° 12:54:46 10° 88° (E) 2,459 4.0 -8.4°
Sets 13:00:11 0° 131° (SE) 3,405 5.1 -9.4°
